Location: Bednik
(45.3500°N, 16.3833°E)
Time: 08:30:28
(UTC+00:00)

ADEOS II - Pass Details

Date: 08 August 2020
Orbit: 799 x 802 km, 98.5° (Epoch: 20 September)

Event Time Altitude Azimuth Distance (km) Brightness Sun altitude
Rises 23:45:42 0° 33° (NNE) 3,319 6.4 -28.0°
Reaches altitude 10° 23:49:32 10° 62° (ENE) 2,381 5.0 -27.8°
Maximum altitude 23:51:48 13° 87° (E) 2,189 4.5 -27.8°
Enters shadow 23:53:32 11° 108° (ESE) 2,297 4.4 -27.7°
